TimePDT,TemperatureF,Dew PointF,Humidity,Sea Level PressureIn,VisibilityMPH,Wind Direction,Wind SpeedMPH,Gust SpeedMPH,PrecipitationIn,Events,Conditions,WindDirDegrees,DateUTC
12:56 AM,52.0,19.0,27,29.85,10.0,NNW,5.8,-,N/A,,Clear,340,2012-11-01 07:56:00
1:56 AM,50.0,19.9,31,29.86,10.0,ENE,4.6,-,N/A,,Clear,60,2012-11-01 08:56:00
2:56 AM,48.0,19.9,33,29.88,10.0,Calm,Calm,-,N/A,,Clear,0,2012-11-01 09:56:00
3:56 AM,50.0,19.9,31,29.86,10.0,Calm,Calm,-,N/A,,Mostly Cloudy,0,2012-11-01 10:56:00
5:56 AM,48.0,21.9,36,29.89,10.0,Calm,Calm,-,N/A,,Overcast,0,2012-11-01 12:56:00
6:56 AM,48.0,21.9,36,29.90,10.0,East,3.5,-,N/A,,Overcast,80,2012-11-01 13:56:00
9:56 AM,55.0,21.9,28,29.94,10.0,WSW,3.5,-,N/A,,Scattered Clouds,240,2012-11-01 16:56:00
10:56 AM,57.0,24.1,28,29.96,10.0,West,10.4,-,N/A,,Overcast,280,2012-11-01 17:56:00
11:56 AM,55.9,26.1,32,29.98,10.0,WSW,16.1,24.2,N/A,,Overcast,240,2012-11-01 18:56:00
12:09 PM,55.4,26.6,33,30.05,10.0,WSW,9.2,18.4,N/A,,Overcast,240,2012-11-01 19:09:00
12:56 PM,57.0,27.0,32,29.95,10.0,WNW,12.7,-,N/A,,Overcast,290,2012-11-01 19:56:00
1:56 PM,55.9,30.0,37,29.96,10.0,West,16.1,23.0,N/A,,Overcast,280,2012-11-01 20:56:00
2:56 PM,55.9,30.9,39,29.97,10.0,West,12.7,-,N/A,,Overcast,270,2012-11-01 21:56:00
3:56 PM,55.9,30.9,39,29.96,10.0,West,6.9,-,N/A,,Overcast,260,2012-11-01 22:56:00
4:56 PM,55.0,30.9,40,29.97,10.0,West,8.1,-,N/A,,Overcast,280,2012-11-01 23:56:00
5:56 PM,53.1,30.9,43,29.99,10.0,NW,5.8,-,N/A,,Overcast,320,2012-11-02 00:56:00
6:56 PM,51.1,30.9,46,30.01,10.0,Calm,Calm,-,N/A,,Overcast,0,2012-11-02 01:56:00
7:56 PM,48.9,30.9,50,30.02,10.0,Calm,Calm,-,N/A,,Overcast,0,2012-11-02 02:56:00
8:56 PM,45.0,30.9,58,30.04,10.0,SW,4.6,-,N/A,,Overcast,220,2012-11-02 03:56:00
9:56 PM,42.1,30.0,62,30.04,10.0,Calm,Calm,-,N/A,,Clear,0,2012-11-02 04:56:00
10:56 PM,39.0,28.0,65,30.06,10.0,Calm,Calm,-,N/A,,Clear,0,2012-11-02 05:56:00
11:56 PM,34.0,28.0,79,30.08,10.0,Calm,Calm,-,N/A,,Clear,0,2012-11-02 06:56:00